Time,TemperatureF,DewpointF,PressureIn,WindDirection,WindDirectionDegrees,WindSpeedMPH,WindSpeedGustMPH,Humidity,HourlyPrecipIn,Conditions,Clouds,dailyrainin,SolarRadiationWatts/m^2,SoftwareType,DateUTC
2013-01-25 00:00:00,39.7,38.9,30.00,NE,36,0.0,1.0,97,0.01,,---,0.19,0.00,VWS V14.01,2013-01-25 08:00:00,
2013-01-25 00:05:00,39.7,38.9,30.00,NE,36,0.0,1.0,97,0.01,,---,0.19,0.00,VWS V14.01,2013-01-25 08:05:00,
2013-01-25 00:10:00,39.7,38.9,30.00,NNE,30,0.0,1.0,97,0.01,,---,0.00,0.00,VWS V14.01,2013-01-25 08:10:00,
2013-01-25 00:15:00,39.7,38.9,29.99,NNE,30,0.0,1.0,97,0.02,,---,0.01,0.00,VWS V14.01,2013-01-25 08:15:00,
2013-01-25 00:20:00,39.7,38.9,29.99,NNE,30,0.0,2.0,97,0.02,,---,0.01,0.00,VWS V14.01,2013-01-25 08:20:00,
2013-01-25 00:25:00,39.7,38.9,29.99,NNE,31,0.0,1.0,97,0.02,,---,0.01,0.00,VWS V14.01,2013-01-25 08:25:00,
2013-01-25 00:30:00,39.7,38.9,29.99,NNE,30,0.0,1.0,97,0.02,,---,0.01,0.00,VWS V14.01,2013-01-25 08:30:00,
2013-01-25 00:35:00,39.8,39.0,29.99,NNE,31,0.0,0.0,97,0.03,,---,0.02,0.00,VWS V14.01,2013-01-25 08:35:00,
2013-01-25 00:40:00,39.8,39.0,29.99,NNE,31,0.0,0.0,97,0.03,,---,0.02,0.00,VWS V14.01,2013-01-25 08:40:00,
2013-01-25 00:45:00,39.9,39.1,29.99,NNE,31,0.0,0.0,97,0.03,,---,0.02,0.00,VWS V14.01,2013-01-25 08:45:00,
2013-01-25 00:50:00,39.9,39.1,29.99,NNE,31,1.0,2.0,97,0.02,,---,0.02,0.00,VWS V14.01,2013-01-25 08:50:00,
2013-01-25 00:55:00,40.0,39.2,29.99,NNE,31,0.0,2.0,97,0.02,,---,0.02,0.00,VWS V14.01,2013-01-25 08:55:00,
2013-01-25 01:00:00,40.0,39.2,29.99,NNE,31,0.0,1.0,97,0.02,,---,0.02,0.00,VWS V14.01,2013-01-25 09:00:00,
2013-01-25 01:05:00,40.1,39.3,29.99,NNE,31,0.0,0.0,97,0.03,,---,0.03,0.00,VWS V14.01,2013-01-25 09:05:00,
2013-01-25 01:10:00,40.1,39.3,29.99,NNE,31,0.0,0.0,97,0.03,,---,0.03,0.00,VWS V14.01,2013-01-25 09:10:00,
2013-01-25 01:15:00,40.2,39.4,29.99,NNE,31,0.0,0.0,97,0.03,,---,0.04,0.00,VWS V14.01,2013-01-25 09:15:00,
2013-01-25 01:20:00,40.2,39.4,29.99,NNE,31,0.0,1.0,97,0.03,,---,0.04,0.00,VWS V14.01,2013-01-25 09:20:00,
2013-01-25 01:25:00,40.3,39.5,29.99,NNE,31,0.0,0.0,97,0.03,,---,0.04,0.00,VWS V14.01,2013-01-25 09:25:00,
2013-01-25 01:30:00,40.3,39.5,29.99,NNE,31,0.0,0.0,97,0.03,,---,0.04,0.00,VWS V14.01,2013-01-25 09:30:00,
2013-01-25 01:35:00,40.4,39.9,29.99,NNE,31,0.0,0.0,98,0.03,,---,0.05,0.00,VWS V14.01,2013-01-25 09:35:00,
2013-01-25 01:40:00,40.4,39.9,29.99,NNE,31,0.0,0.0,98,0.03,,---,0.05,0.00,VWS V14.01,2013-01-25 09:40:00,
2013-01-25 01:45:00,40.5,40.0,29.99,NNE,31,0.0,0.0,98,0.04,,---,0.06,0.00,VWS V14.01,2013-01-25 09:45:00,
2013-01-25 01:50:00,40.6,40.1,29.99,NNE,31,0.0,0.0,98,0.05,,---,0.07,0.00,VWS V14.01,2013-01-25 09:50:00,
2013-01-25 01:55:00,40.6,40.1,29.98,NNE,31,0.0,0.0,98,0.05,,---,0.07,0.00,VWS V14.01,2013-01-25 09:55:00,
2013-01-25 02:00:00,40.6,40.1,29.98,NNE,31,0.0,0.0,98,0.05,,---,0.07,0.00,VWS V14.01,2013-01-25 10:00:00,
2013-01-25 02:05:00,40.7,40.2,29.98,NNE,31,0.0,1.0,98,0.04,,---,0.07,0.00,VWS V14.01,2013-01-25 10:05:00,
2013-01-25 02:10:00,40.7,40.2,29.98,NNE,31,0.0,1.0,98,0.04,,---,0.07,0.00,VWS V14.01,2013-01-25 10:10:00,
2013-01-25 02:15:00,40.7,40.2,29.99,NE,53,0.0,2.0,98,0.03,,---,0.07,0.00,VWS V14.01,2013-01-25 10:15:00,
2013-01-25 02:20:00,40.7,39.9,29.99,NE,53,0.0,2.0,97,0.03,,---,0.07,0.00,VWS V14.01,2013-01-25 10:20:00,
2013-01-25 02:25:00,40.7,40.2,29.99,NE,53,0.0,2.0,98,0.04,,---,0.08,0.00,VWS V14.01,2013-01-25 10:25:00,
2013-01-25 02:30:00,40.7,39.9,29.99,NE,53,0.0,2.0,97,0.04,,---,0.08,0.00,VWS V14.01,2013-01-25 10:30:00,
2013-01-25 02:35:00,40.6,40.1,29.99,NE,53,0.0,1.0,98,0.04,,---,0.09,0.00,VWS V14.01,2013-01-25 10:35:00,
2013-01-25 02:40:00,40.6,40.1,29.99,NE,53,0.0,0.0,98,0.04,,---,0.09,0.00,VWS V14.01,2013-01-25 10:40:00,
2013-01-25 02:45:00,40.6,40.1,29.99,NE,53,1.0,2.0,98,0.04,,---,0.10,0.00,VWS V14.01,2013-01-25 10:45:00,
2013-01-25 02:50:00,40.5,40.0,29.99,NE,53,0.0,2.0,98,0.03,,---,0.10,0.00,VWS V14.01,2013-01-25 10:50:00,
2013-01-25 02:55:00,40.5,40.0,29.99,NE,53,0.0,0.0,98,0.04,,---,0.11,0.00,VWS V14.01,2013-01-25 10:55:00,
2013-01-25 03:00:00,40.5,40.0,29.99,NE,53,0.0,0.0,98,0.04,,---,0.11,0.00,VWS V14.01,2013-01-25 11:00:00,
2013-01-25 03:05:00,40.5,40.0,29.99,NE,53,0.0,0.0,98,0.04,,---,0.11,0.00,VWS V14.01,2013-01-25 11:05:00,
2013-01-25 03:10:00,40.5,40.0,29.98,NE,53,0.0,0.0,98,0.05,,---,0.12,0.00,VWS V14.01,2013-01-25 11:10:00,
2013-01-25 03:15:00,40.4,39.9,29.98,NE,53,0.0,0.0,98,0.05,,---,0.12,0.00,VWS V14.01,2013-01-25 11:15:00,
2013-01-25 03:20:00,40.5,40.0,29.98,NE,53,0.0,0.0,98,0.05,,---,0.12,0.00,VWS V14.01,2013-01-25 11:20:00,
2013-01-25 03:25:00,40.5,40.0,29.98,NE,53,0.0,1.0,98,0.04,,---,0.12,0.00,VWS V14.01,2013-01-25 11:25:00,
2013-01-25 03:30:00,40.5,40.0,29.98,NE,53,0.0,0.0,98,0.05,,---,0.13,0.00,VWS V14.01,2013-01-25 11:30:00,
2013-01-25 03:35:00,40.6,40.1,29.98,NE,53,0.0,0.0,98,0.04,,---,0.13,0.00,VWS V14.01,2013-01-25 11:35:00,
2013-01-25 03:40:00,40.6,40.1,29.98,NE,53,0.0,0.0,98,0.04,,---,0.13,0.00,VWS V14.01,2013-01-25 11:40:00,
2013-01-25 03:45:00,40.6,40.1,29.98,NE,53,0.0,0.0,98,0.05,,---,0.14,0.00,VWS V14.01,2013-01-25 11:45:00,
2013-01-25 03:50:00,40.6,40.1,29.98,NE,53,0.0,2.0,98,0.05,,---,0.15,0.00,VWS V14.01,2013-01-25 11:50:00,
2013-01-25 03:55:00,40.6,40.1,29.98,NE,53,0.0,1.0,98,0.04,,---,0.15,0.00,VWS V14.01,2013-01-25 11:55:00,
2013-01-25 04:00:00,40.6,40.1,29.98,NE,53,0.0,2.0,98,0.04,,---,0.15,0.00,VWS V14.01,2013-01-25 12:00:00,
2013-01-25 04:06:00,40.6,40.1,29.98,NE,53,0.0,2.0,98,0.04,,---,0.15,0.00,VWS V14.01,2013-01-25 12:06:00,
2013-01-25 04:11:00,40.6,40.1,29.98,NE,53,0.0,0.0,98,0.03,,---,0.15,0.00,VWS V14.01,2013-01-25 12:11:00,
2013-01-25 04:16:00,40.6,40.1,29.98,ENE,76,0.0,2.0,98,0.03,,---,0.15,0.00,VWS V14.01,2013-01-25 12:16:00,
2013-01-25 04:21:00,40.6,40.1,29.98,ENE,76,0.0,2.0,98,0.03,,---,0.15,0.00,VWS V14.01,2013-01-25 12:21:00,
2013-01-25 04:26:00,40.6,40.1,29.97,ENE,75,0.0,2.0,98,0.03,,---,0.15,0.00,VWS V14.01,2013-01-25 12:26:00,
2013-01-25 04:31:00,40.7,40.2,29.97,ENE,75,0.0,2.0,98,0.02,,---,0.15,0.00,VWS V14.01,2013-01-25 12:31:00,
2013-01-25 04:36:00,40.6,40.1,29.97,ENE,75,0.0,2.0,98,0.02,,---,0.15,0.00,VWS V14.01,2013-01-25 12:36:00,
2013-01-25 04:41:00,40.7,40.2,29.97,ENE,75,0.0,2.0,98,0.02,,---,0.15,0.00,VWS V14.01,2013-01-25 12:41:00,
2013-01-25 04:46:00,40.7,40.2,29.97,ENE,65,0.0,1.0,98,0.01,,---,0.15,0.00,VWS V14.01,2013-01-25 12:46:00,
2013-01-25 04:51:00,40.6,40.1,29.97,ENE,65,0.0,2.0,98,0.00,,---,0.15,0.00,VWS V14.01,2013-01-25 12:51:00,
2013-01-25 04:56:00,40.6,40.1,29.97,ENE,65,0.0,2.0,98,0.00,,---,0.15,0.00,VWS V14.01,2013-01-25 12:56:00,
2013-01-25 05:01:00,40.7,40.2,29.97,ENE,65,0.0,2.0,98,0.00,,---,0.15,0.00,VWS V14.01,2013-01-25 13:01:00,
2013-01-25 05:06:00,40.6,40.1,29.97,ENE,65,0.0,2.0,98,0.00,,---,0.15,0.00,VWS V14.01,2013-01-25 13:06:00,
2013-01-25 05:11:00,40.6,40.1,29.98,ENE,65,0.0,1.0,98,0.00,,---,0.15,0.00,VWS V14.01,2013-01-25 13:11:00,
2013-01-25 05:16:00,40.7,40.2,29.98,ENE,65,0.0,1.0,98,0.00,,---,0.15,0.00,VWS V14.01,2013-01-25 13:16:00,
2013-01-25 05:21:00,40.7,40.2,29.98,ENE,65,0.0,0.0,98,0.00,,---,0.15,0.00,VWS V14.01,2013-01-25 13:21:00,
2013-01-25 05:26:00,40.6,40.1,29.98,ENE,65,0.0,1.0,98,0.00,,---,0.15,0.00,VWS V14.01,2013-01-25 13:26:00,
2013-01-25 05:31:00,40.6,40.1,29.98,ENE,65,0.0,1.0,98,0.00,,---,0.15,0.00,VWS V14.01,2013-01-25 13:31:00,
2013-01-25 05:36:00,40.7,40.2,29.97,ENE,65,0.0,2.0,98,0.00,,---,0.15,0.00,VWS V14.01,2013-01-25 13:36:00,
2013-01-25 05:41:00,40.7,40.2,29.98,ENE,65,0.0,2.0,98,0.00,,---,0.15,0.00,VWS V14.01,2013-01-25 13:41:00,
2013-01-25 05:46:00,40.7,40.2,29.98,ENE,65,0.0,0.0,98,0.00,,---,0.15,0.00,VWS V14.01,2013-01-25 13:46:00,
2013-01-25 05:51:00,40.7,40.2,29.98,ENE,65,0.0,0.0,98,0.00,,---,0.15,0.00,VWS V14.01,2013-01-25 13:51:00,
2013-01-25 05:56:00,40.9,40.4,29.98,ENE,65,0.0,2.0,98,0.00,,---,0.15,0.00,VWS V14.01,2013-01-25 13:56:00,
2013-01-25 06:01:00,40.9,40.4,29.98,ENE,65,0.0,2.0,98,0.00,,---,0.15,0.00,VWS V14.01,2013-01-25 14:01:00,
2013-01-25 06:06:00,40.9,40.4,29.98,NE,45,0.0,2.0,98,0.00,,---,0.15,0.00,VWS V14.01,2013-01-25 14:06:00,
2013-01-25 06:11:00,40.9,40.4,29.98,NE,45,0.0,1.0,98,0.00,,---,0.15,0.00,VWS V14.01,2013-01-25 14:11:00,
2013-01-25 06:16:00,40.9,40.4,29.98,NE,45,0.0,0.0,98,0.00,,---,0.15,0.00,VWS V14.01,2013-01-25 14:16:00,
2013-01-25 06:21:00,40.9,40.4,29.98,NE,45,0.0,1.0,98,0.00,,---,0.15,0.00,VWS V14.01,2013-01-25 14:21:00,
2013-01-25 06:26:00,40.9,40.4,29.98,NE,45,0.0,0.0,98,0.00,,---,0.15,0.00,VWS V14.01,2013-01-25 14:26:00,
2013-01-25 06:31:00,40.9,40.4,29.97,NE,43,0.0,1.0,98,0.00,,---,0.15,0.00,VWS V14.01,2013-01-25 14:31:00,
2013-01-25 06:36:00,40.9,40.4,29.98,NE,43,0.0,1.0,98,0.00,,---,0.15,0.00,VWS V14.01,2013-01-25 14:36:00,
2013-01-25 06:41:00,41.1,40.6,29.98,NE,43,0.0,1.0,98,0.00,,---,0.15,0.00,VWS V14.01,2013-01-25 14:41:00,
2013-01-25 06:46:00,41.4,40.9,29.98,SSE,155,0.0,6.0,98,0.00,,---,0.15,0.00,VWS V14.01,2013-01-25 14:46:00,
2013-01-25 06:51:00,41.6,41.1,29.98,SSE,167,0.0,5.0,98,0.00,,---,0.15,0.00,VWS V14.01,2013-01-25 14:51:00,
2013-01-25 06:56:00,41.5,41.0,29.98,SSE,167,0.0,2.0,98,0.00,,---,0.15,0.00,VWS V14.01,2013-01-25 14:56:00,
2013-01-25 07:01:00,41.4,40.9,29.98,SSE,167,0.0,0.0,98,0.00,,---,0.15,0.00,VWS V14.01,2013-01-25 15:01:00,
2013-01-25 07:06:00,41.5,41.0,29.98,WSW,248,0.0,5.0,98,0.00,,---,0.15,0.00,VWS V14.01,2013-01-25 15:06:00,
2013-01-25 07:11:00,41.8,41.3,29.98,SW,231,0.0,5.0,98,0.00,,---,0.15,0.00,VWS V14.01,2013-01-25 15:11:00,
2013-01-25 07:16:00,42.0,41.5,29.98,SW,231,0.0,3.0,98,0.00,,---,0.15,0.00,VWS V14.01,2013-01-25 15:16:00,
2013-01-25 07:21:00,42.0,41.5,29.98,SW,231,0.0,1.0,98,0.00,,---,0.15,0.00,VWS V14.01,2013-01-25 15:21:00,
2013-01-25 07:26:00,42.1,41.6,29.98,SW,231,0.0,2.0,98,0.00,,---,0.15,0.00,VWS V14.01,2013-01-25 15:26:00,
2013-01-25 07:31:00,42.2,41.7,29.98,WNW,295,1.0,3.0,98,0.00,,---,0.15,0.00,VWS V14.01,2013-01-25 15:31:00,
2013-01-25 07:36:00,42.5,42.0,29.98,SSW,195,0.0,5.0,98,0.00,,---,0.15,0.00,VWS V14.01,2013-01-25 15:36:00,
2013-01-25 07:41:00,42.7,42.2,29.97,SW,235,0.0,5.0,98,0.00,,---,0.15,0.00,VWS V14.01,2013-01-25 15:41:00,
2013-01-25 07:46:00,42.7,42.2,29.98,WNW,284,0.0,2.0,98,0.00,,---,0.15,0.00,VWS V14.01,2013-01-25 15:46:00,
2013-01-25 07:51:00,42.8,42.3,29.97,WNW,284,1.0,2.0,98,0.00,,---,0.15,0.00,VWS V14.01,2013-01-25 15:51:00,
2013-01-25 07:56:00,42.8,42.3,29.98,SE,146,0.0,5.0,98,0.00,,---,0.15,0.00,VWS V14.01,2013-01-25 15:56:00,
2013-01-25 08:01:00,42.8,42.3,29.98,SW,233,0.0,5.0,98,0.00,,---,0.15,5.00,VWS V14.01,2013-01-25 16:01:00,
2013-01-25 08:06:00,42.9,42.4,29.98,WSW,257,0.0,3.0,98,0.00,,---,0.15,7.00,VWS V14.01,2013-01-25 16:06:00,
2013-01-25 08:11:00,42.9,42.4,29.98,SE,126,2.0,5.0,98,0.00,,---,0.15,12.00,VWS V14.01,2013-01-25 16:11:00,
2013-01-25 08:16:00,43.1,42.6,29.98,SSW,194,2.0,5.0,98,0.00,,---,0.15,11.00,VWS V14.01,2013-01-25 16:16:00,
2013-01-25 08:21:00,43.3,42.8,29.98,SW,224,0.0,5.0,98,0.00,,---,0.15,18.00,VWS V14.01,2013-01-25 16:21:00,
2013-01-25 08:26:00,43.3,42.8,29.98,SE,141,5.0,6.0,98,0.00,,---,0.15,18.00,VWS V14.01,2013-01-25 16:26:00,
2013-01-25 08:31:00,43.4,42.9,29.98,SW,224,0.0,6.0,98,0.00,,---,0.15,16.00,VWS V14.01,2013-01-25 16:31:00,
2013-01-25 08:36:00,43.5,43.0,29.98,SE,136,0.0,4.0,98,0.00,,---,0.15,14.00,VWS V14.01,2013-01-25 16:36:00,
2013-01-25 08:41:00,43.5,43.0,29.98,SSE,155,0.0,4.0,98,0.00,,---,0.15,14.00,VWS V14.01,2013-01-25 16:41:00,
2013-01-25 08:46:00,43.5,43.0,29.98,SSE,165,0.0,4.0,98,0.00,,---,0.15,23.00,VWS V14.01,2013-01-25 16:46:00,
2013-01-25 08:51:00,43.5,43.0,29.98,SSE,154,0.0,2.0,98,0.00,,---,0.15,40.00,VWS V14.01,2013-01-25 16:51:00,
2013-01-25 08:56:00,43.6,43.1,29.98,NW,304,0.0,3.0,98,0.00,,---,0.15,37.00,VWS V14.01,2013-01-25 16:56:00,
2013-01-25 09:01:00,43.7,43.2,29.98,West,274,0.0,3.0,98,0.00,,---,0.15,35.00,VWS V14.01,2013-01-25 17:01:00,
2013-01-25 09:06:00,43.8,43.3,29.98,West,274,0.0,3.0,98,0.00,,---,0.15,46.00,VWS V14.01,2013-01-25 17:06:00,
2013-01-25 09:11:00,43.9,43.4,29.98,SSW,192,0.0,4.0,98,0.00,,---,0.15,67.00,VWS V14.01,2013-01-25 17:11:00,
2013-01-25 09:16:00,44.1,43.6,29.99,SSW,192,1.0,3.0,98,0.00,,---,0.15,74.00,VWS V14.01,2013-01-25 17:16:00,
2013-01-25 09:21:00,44.0,43.5,29.99,SSW,192,0.0,2.0,98,0.00,,---,0.15,60.00,VWS V14.01,2013-01-25 17:21:00,
2013-01-25 09:26:00,43.8,43.3,29.99,SSW,192,0.0,0.0,98,0.00,,---,0.15,44.00,VWS V14.01,2013-01-25 17:26:00,
2013-01-25 09:32:00,43.8,43.3,29.99,SSW,192,0.0,0.0,98,0.00,,---,0.15,37.00,VWS V14.01,2013-01-25 17:32:00,
2013-01-25 09:37:00,43.8,43.3,29.99,SSW,192,0.0,0.0,98,0.00,,---,0.15,37.00,VWS V14.01,2013-01-25 17:37:00,
2013-01-25 09:42:00,43.8,43.3,29.99,SSW,192,0.0,0.0,98,0.00,,---,0.15,32.00,VWS V14.01,2013-01-25 17:42:00,
2013-01-25 09:47:00,43.8,43.3,29.99,SSW,192,0.0,0.0,98,0.00,,---,0.15,46.00,VWS V14.01,2013-01-25 17:47:00,
2013-01-25 09:52:00,43.9,43.4,29.99,SSW,192,0.0,0.0,98,0.00,,---,0.15,51.00,VWS V14.01,2013-01-25 17:52:00,
2013-01-25 09:57:00,43.9,43.4,29.99,SSW,192,0.0,1.0,98,0.00,,---,0.15,37.00,VWS V14.01,2013-01-25 17:57:00,
2013-01-25 10:02:00,43.9,43.4,29.99,SSW,192,0.0,0.0,98,0.00,,---,0.15,51.00,VWS V14.01,2013-01-25 18:02:00,
2013-01-25 10:07:00,43.8,43.3,29.99,SSW,192,0.0,0.0,98,0.00,,---,0.15,81.00,VWS V14.01,2013-01-25 18:07:00,
2013-01-25 10:12:00,43.7,43.2,29.99,SSW,192,0.0,1.0,98,0.00,,---,0.15,54.00,VWS V14.01,2013-01-25 18:12:00,
2013-01-25 10:17:00,43.6,43.1,29.99,SSW,192,0.0,0.0,98,0.00,,---,0.15,76.00,VWS V14.01,2013-01-25 18:17:00,
2013-01-25 10:22:00,43.7,43.2,29.99,SSW,192,0.0,2.0,98,0.01,,---,0.16,74.00,VWS V14.01,2013-01-25 18:22:00,
2013-01-25 10:27:00,43.8,43.3,29.99,SSW,192,0.0,2.0,98,0.01,,---,0.16,53.00,VWS V14.01,2013-01-25 18:27:00,
2013-01-25 10:32:00,44.0,43.5,29.99,SSW,192,0.0,2.0,98,0.01,,---,0.16,62.00,VWS V14.01,2013-01-25 18:32:00,
2013-01-25 10:37:00,44.0,43.5,29.99,ESE,116,1.0,1.0,98,0.01,,---,0.16,54.00,VWS V14.01,2013-01-25 18:37:00,
2013-01-25 10:42:00,44.1,43.6,29.99,ESE,114,0.0,2.0,98,0.01,,---,0.16,65.00,VWS V14.01,2013-01-25 18:42:00,
2013-01-25 10:47:00,44.3,43.8,29.99,ESE,114,0.0,0.0,98,0.01,,---,0.16,74.00,VWS V14.01,2013-01-25 18:47:00,
2013-01-25 10:52:00,44.3,43.8,29.99,ESE,114,0.0,0.0,98,0.01,,---,0.16,62.00,VWS V14.01,2013-01-25 18:52:00,
2013-01-25 10:57:00,44.3,43.8,29.99,ESE,114,0.0,0.0,98,0.01,,---,0.16,88.00,VWS V14.01,2013-01-25 18:57:00,
2013-01-25 11:02:00,44.4,43.9,29.98,ESE,114,0.0,0.0,98,0.01,,---,0.16,77.00,VWS V14.01,2013-01-25 19:02:00,
2013-01-25 11:07:00,44.6,44.1,29.98,ESE,114,0.0,1.0,98,0.01,,---,0.16,47.00,VWS V14.01,2013-01-25 19:07:00,
2013-01-25 11:12:00,44.6,44.1,29.98,ESE,114,0.0,0.0,98,0.01,,---,0.16,54.00,VWS V14.01,2013-01-25 19:12:00,
2013-01-25 11:17:00,44.7,44.2,29.98,ESE,114,0.0,0.0,98,0.01,,---,0.16,47.00,VWS V14.01,2013-01-25 19:17:00,
2013-01-25 11:22:00,44.8,44.3,29.98,ESE,114,0.0,1.0,98,0.00,,---,0.16,60.00,VWS V14.01,2013-01-25 19:22:00,
2013-01-25 11:27:00,44.8,44.3,29.98,ESE,114,0.0,1.0,98,0.00,,---,0.16,56.00,VWS V14.01,2013-01-25 19:27:00,
2013-01-25 11:32:00,44.8,44.3,29.98,ESE,114,0.0,0.0,98,0.00,,---,0.16,70.00,VWS V14.01,2013-01-25 19:32:00,
2013-01-25 11:37:00,44.8,44.3,29.98,ESE,114,0.0,0.0,98,0.00,,---,0.16,70.00,VWS V14.01,2013-01-25 19:37:00,
2013-01-25 11:42:00,44.9,44.4,29.97,ESE,114,0.0,0.0,98,0.00,,---,0.16,53.00,VWS V14.01,2013-01-25 19:42:00,
2013-01-25 11:47:00,45.0,44.5,29.97,ESE,114,0.0,0.0,98,0.00,,---,0.16,69.00,VWS V14.01,2013-01-25 19:47:00,
2013-01-25 11:52:00,45.0,44.5,29.97,ESE,114,0.0,0.0,98,0.00,,---,0.16,100.00,VWS V14.01,2013-01-25 19:52:00,
2013-01-25 11:57:00,45.2,44.7,29.96,ESE,114,0.0,1.0,98,0.00,,---,0.16,183.00,VWS V14.01,2013-01-25 19:57:00,
2013-01-25 12:02:00,45.5,45.0,29.96,ESE,114,0.0,1.0,98,0.00,,---,0.16,123.00,VWS V14.01,2013-01-25 20:02:00,
2013-01-25 12:07:00,45.6,45.1,29.96,ESE,114,0.0,1.0,98,0.00,,---,0.16,104.00,VWS V14.01,2013-01-25 20:07:00,
2013-01-25 12:12:00,45.6,45.1,29.96,ESE,114,0.0,0.0,98,0.00,,---,0.16,81.00,VWS V14.01,2013-01-25 20:12:00,
2013-01-25 12:17:00,45.6,45.1,29.95,ESE,114,0.0,0.0,98,0.00,,---,0.16,67.00,VWS V14.01,2013-01-25 20:17:00,
2013-01-25 12:22:00,45.6,44.8,29.95,ESE,114,0.0,0.0,97,0.00,,---,0.16,58.00,VWS V14.01,2013-01-25 20:22:00,
2013-01-25 12:27:00,45.6,44.8,29.95,ESE,114,0.0,0.0,97,0.00,,---,0.16,77.00,VWS V14.01,2013-01-25 20:27:00,
2013-01-25 12:32:00,45.6,44.8,29.95,ESE,114,0.0,1.0,97,0.00,,---,0.16,179.00,VWS V14.01,2013-01-25 20:32:00,
2013-01-25 12:37:00,46.1,45.3,29.94,East,96,0.0,2.0,97,0.00,,---,0.16,285.00,VWS V14.01,2013-01-25 20:37:00,
2013-01-25 12:42:00,46.5,46.0,29.94,NE,39,1.0,2.0,98,0.00,,---,0.16,128.00,VWS V14.01,2013-01-25 20:42:00,
2013-01-25 12:47:00,46.5,45.7,29.94,NE,39,0.0,2.0,97,0.00,,---,0.16,86.00,VWS V14.01,2013-01-25 20:47:00,
2013-01-25 12:52:00,46.4,45.6,29.94,NE,39,0.0,2.0,97,0.00,,---,0.16,76.00,VWS V14.01,2013-01-25 20:52:00,
2013-01-25 12:57:00,46.3,45.5,29.94,NE,53,0.0,2.0,97,0.00,,---,0.16,90.00,VWS V14.01,2013-01-25 20:57:00,
2013-01-25 13:02:00,46.4,45.6,29.94,NE,53,1.0,1.0,97,0.00,,---,0.16,86.00,VWS V14.01,2013-01-25 21:02:00,
2013-01-25 13:07:00,46.5,45.7,29.93,NNE,22,0.0,1.0,97,0.00,,---,0.16,107.00,VWS V14.01,2013-01-25 21:07:00,
2013-01-25 13:13:00,46.6,45.8,29.93,NNE,22,0.0,1.0,97,0.00,,---,0.16,125.00,VWS V14.01,2013-01-25 21:13:00,
2013-01-25 13:18:00,46.7,45.9,29.93,NNE,23,0.0,2.0,97,0.00,,---,0.16,98.00,VWS V14.01,2013-01-25 21:18:00,
2013-01-25 13:23:00,46.7,45.6,29.93,NE,37,1.0,2.0,96,0.00,,---,0.16,67.00,VWS V14.01,2013-01-25 21:23:00,
2013-01-25 13:27:00,46.5,45.4,29.93,NE,37,0.0,2.0,96,0.00,,---,0.16,63.00,VWS V14.01,2013-01-25 21:27:00,
2013-01-25 13:32:00,46.4,45.3,29.93,NE,37,0.0,1.0,96,0.00,,---,0.16,142.00,VWS V14.01,2013-01-25 21:32:00,
2013-01-25 13:38:00,46.5,45.4,29.92,NE,37,0.0,0.0,96,0.00,,---,0.16,148.00,VWS V14.01,2013-01-25 21:38:00,
2013-01-25 13:43:00,46.7,45.6,29.92,NE,37,0.0,1.0,96,0.00,,---,0.16,172.00,VWS V14.01,2013-01-25 21:43:00,
2013-01-25 13:48:00,46.9,45.8,29.92,NE,41,1.0,2.0,96,0.00,,---,0.16,192.00,VWS V14.01,2013-01-25 21:48:00,
2013-01-25 13:53:00,47.4,46.3,29.92,NE,50,0.0,2.0,96,0.00,,---,0.16,443.00,VWS V14.01,2013-01-25 21:53:00,
2013-01-25 13:58:00,48.0,46.9,29.92,ENE,77,1.0,4.0,96,0.00,,---,0.16,413.00,VWS V14.01,2013-01-25 21:58:00,
2013-01-25 14:03:00,48.3,46.4,29.92,ESE,104,0.0,7.0,93,0.00,,---,0.16,404.00,VWS V14.01,2013-01-25 22:03:00,
2013-01-25 14:08:00,48.4,46.2,29.91,East,84,2.0,2.0,92,0.00,,---,0.16,54.00,VWS V14.01,2013-01-25 22:08:00,
2013-01-25 14:13:00,48.2,46.0,29.91,East,84,0.0,2.0,92,0.00,,---,0.16,70.00,VWS V14.01,2013-01-25 22:13:00,
2013-01-25 14:18:00,48.1,46.2,29.91,East,84,1.0,2.0,93,0.00,,---,0.16,167.00,VWS V14.01,2013-01-25 22:18:00,
2013-01-25 14:23:00,48.1,46.2,29.91,East,84,1.0,1.0,93,0.00,,---,0.16,127.00,VWS V14.01,2013-01-25 22:23:00,
2013-01-25 14:28:00,48.2,46.3,29.91,East,84,0.0,2.0,93,0.00,,---,0.16,123.00,VWS V14.01,2013-01-25 22:28:00,
2013-01-25 14:33:00,48.1,46.2,29.91,East,84,0.0,1.0,93,0.00,,---,0.16,90.00,VWS V14.01,2013-01-25 22:33:00,
2013-01-25 14:38:00,47.9,45.7,29.90,East,84,0.0,0.0,92,0.00,,---,0.16,72.00,VWS V14.01,2013-01-25 22:38:00,
2013-01-25 14:43:00,47.9,46.0,29.90,NE,53,0.0,0.0,93,0.00,,---,0.16,49.00,VWS V14.01,2013-01-25 22:43:00,
2013-01-25 14:48:00,47.8,45.6,29.90,NE,53,0.0,0.0,92,0.00,,---,0.16,42.00,VWS V14.01,2013-01-25 22:48:00,
2013-01-25 14:53:00,47.6,45.7,29.90,NE,53,0.0,0.0,93,0.00,,---,0.16,35.00,VWS V14.01,2013-01-25 22:53:00,
2013-01-25 14:58:00,47.5,45.6,29.90,NE,53,0.0,1.0,93,0.00,,---,0.16,37.00,VWS V14.01,2013-01-25 22:58:00,
2013-01-25 15:03:00,47.4,45.5,29.90,NE,53,0.0,1.0,93,0.00,,---,0.16,42.00,VWS V14.01,2013-01-25 23:03:00,
2013-01-25 15:08:00,47.3,45.4,29.90,NE,53,0.0,0.0,93,0.00,,---,0.16,32.00,VWS V14.01,2013-01-25 23:08:00,
2013-01-25 15:13:00,47.1,45.2,29.90,NE,53,0.0,0.0,93,0.00,,---,0.16,26.00,VWS V14.01,2013-01-25 23:13:00,
2013-01-25 15:18:00,47.0,45.1,29.90,NE,53,0.0,0.0,93,0.00,,---,0.16,26.00,VWS V14.01,2013-01-25 23:18:00,
2013-01-25 15:23:00,46.9,45.3,29.90,NE,53,0.0,0.0,94,0.00,,---,0.16,18.00,VWS V14.01,2013-01-25 23:23:00,
2013-01-25 15:28:00,46.8,45.2,29.90,NE,53,0.0,0.0,94,0.00,,---,0.16,26.00,VWS V14.01,2013-01-25 23:28:00,
2013-01-25 15:33:00,46.6,45.0,29.90,NE,53,0.0,0.0,94,0.00,,---,0.16,30.00,VWS V14.01,2013-01-25 23:33:00,
2013-01-25 15:38:00,46.5,44.9,29.90,NE,53,0.0,0.0,94,0.00,,---,0.16,47.00,VWS V14.01,2013-01-25 23:38:00,
2013-01-25 15:43:00,46.5,44.9,29.90,NE,53,0.0,0.0,94,0.00,,---,0.16,58.00,VWS V14.01,2013-01-25 23:43:00,
2013-01-25 15:48:00,46.6,45.0,29.90,NE,53,1.0,1.0,94,0.00,,---,0.16,88.00,VWS V14.01,2013-01-25 23:48:00,
2013-01-25 15:53:00,46.7,45.1,29.90,NE,53,0.0,1.0,94,0.00,,---,0.16,54.00,VWS V14.01,2013-01-25 23:53:00,
2013-01-25 15:58:00,46.7,45.1,29.90,NE,53,0.0,1.0,94,0.00,,---,0.16,47.00,VWS V14.01,2013-01-25 23:58:00,
2013-01-25 16:03:00,46.8,45.2,29.89,NE,53,0.0,1.0,94,0.00,,---,0.16,53.00,VWS V14.01,2013-01-26 00:03:00,
2013-01-25 16:08:00,46.8,45.2,29.90,NE,53,0.0,0.0,94,0.00,,---,0.16,46.00,VWS V14.01,2013-01-26 00:08:00,
2013-01-25 16:13:00,46.8,45.2,29.90,NE,53,0.0,0.0,94,0.00,,---,0.16,18.00,VWS V14.01,2013-01-26 00:13:00,
2013-01-25 16:18:00,46.8,45.2,29.90,NE,53,0.0,0.0,94,0.00,,---,0.16,19.00,VWS V14.01,2013-01-26 00:18:00,
2013-01-25 16:23:00,46.6,45.0,29.89,NE,53,0.0,0.0,94,0.00,,---,0.16,21.00,VWS V14.01,2013-01-26 00:23:00,
2013-01-25 16:28:00,46.5,44.9,29.89,NE,53,0.0,0.0,94,0.00,,---,0.16,14.00,VWS V14.01,2013-01-26 00:28:00,
2013-01-25 16:33:00,46.3,44.7,29.90,NE,53,0.0,0.0,94,0.00,,---,0.16,18.00,VWS V14.01,2013-01-26 00:33:00,
2013-01-25 16:38:00,46.1,44.5,29.89,NE,53,0.0,0.0,94,0.00,,---,0.16,11.00,VWS V14.01,2013-01-26 00:38:00,
2013-01-25 16:43:00,45.9,44.3,29.89,NE,53,0.0,0.0,94,0.00,,---,0.16,7.00,VWS V14.01,2013-01-26 00:43:00,
2013-01-25 16:48:00,45.7,44.1,29.90,NE,53,0.0,0.0,94,0.00,,---,0.16,5.00,VWS V14.01,2013-01-26 00:48:00,
2013-01-25 16:53:00,45.4,43.8,29.89,NE,53,0.0,0.0,94,0.00,,---,0.16,0.00,VWS V14.01,2013-01-26 00:53:00,
2013-01-25 16:58:00,45.1,43.5,29.89,NE,53,0.0,0.0,94,0.00,,---,0.16,0.00,VWS V14.01,2013-01-26 00:58:00,
2013-01-25 17:03:00,44.9,43.3,29.89,NE,53,0.0,0.0,94,0.00,,---,0.16,0.00,VWS V14.01,2013-01-26 01:03:00,
2013-01-25 17:08:00,44.7,43.1,29.89,NE,53,0.0,0.0,94,0.00,,---,0.16,0.00,VWS V14.01,2013-01-26 01:08:00,
2013-01-25 17:13:00,44.3,42.7,29.89,NE,53,0.0,0.0,94,0.00,,---,0.16,0.00,VWS V14.01,2013-01-26 01:13:00,
2013-01-25 17:18:00,44.0,42.4,29.89,NE,53,0.0,0.0,94,0.00,,---,0.16,0.00,VWS V14.01,2013-01-26 01:18:00,
2013-01-25 17:23:00,43.7,42.1,29.90,NE,53,0.0,0.0,94,0.00,,---,0.16,0.00,VWS V14.01,2013-01-26 01:23:00,
2013-01-25 17:28:00,43.5,42.2,29.89,NE,53,0.0,0.0,95,0.00,,---,0.16,0.00,VWS V14.01,2013-01-26 01:28:00,
2013-01-25 17:33:00,43.4,42.1,29.89,NE,53,0.0,0.0,95,0.00,,---,0.16,0.00,VWS V14.01,2013-01-26 01:33:00,
2013-01-25 17:38:00,43.2,41.9,29.89,NE,53,0.0,0.0,95,0.00,,---,0.16,0.00,VWS V14.01,2013-01-26 01:38:00,
2013-01-25 17:44:00,43.0,41.7,29.90,SE,130,0.0,1.0,95,0.00,,---,0.16,0.00,VWS V14.01,2013-01-26 01:44:00,
2013-01-25 17:49:00,42.8,41.5,29.90,SE,130,0.0,1.0,95,0.00,,---,0.16,0.00,VWS V14.01,2013-01-26 01:49:00,
2013-01-25 17:54:00,42.6,41.3,29.89,SE,130,0.0,0.0,95,0.00,,---,0.16,0.00,VWS V14.01,2013-01-26 01:54:00,
2013-01-25 17:59:00,42.4,41.1,29.89,SE,130,0.0,0.0,95,0.00,,---,0.16,0.00,VWS V14.01,2013-01-26 01:59:00,
2013-01-25 18:04:00,42.2,40.9,29.89,SE,130,0.0,0.0,95,0.00,,---,0.16,0.00,VWS V14.01,2013-01-26 02:04:00,
2013-01-25 18:09:00,41.9,40.6,29.89,SE,130,0.0,0.0,95,0.00,,---,0.16,0.00,VWS V14.01,2013-01-26 02:09:00,
2013-01-25 18:14:00,41.7,40.4,29.89,SE,130,0.0,0.0,95,0.00,,---,0.16,0.00,VWS V14.01,2013-01-26 02:14:00,
2013-01-25 18:19:00,41.5,40.2,29.89,SE,130,0.0,0.0,95,0.00,,---,0.16,0.00,VWS V14.01,2013-01-26 02:19:00,
2013-01-25 18:24:00,41.3,40.0,29.89,SE,130,0.0,0.0,95,0.00,,---,0.16,0.00,VWS V14.01,2013-01-26 02:24:00,
2013-01-25 18:29:00,41.0,39.7,29.89,SE,130,0.0,0.0,95,0.00,,---,0.16,0.00,VWS V14.01,2013-01-26 02:29:00,
2013-01-25 18:34:00,40.8,39.5,29.89,SE,130,0.0,0.0,95,0.00,,---,0.16,0.00,VWS V14.01,2013-01-26 02:34:00,
2013-01-25 18:39:00,40.7,39.7,29.89,SE,130,0.0,0.0,96,0.00,,---,0.16,0.00,VWS V14.01,2013-01-26 02:39:00,
2013-01-25 18:44:00,40.6,39.5,29.89,SE,130,0.0,0.0,96,0.00,,---,0.16,0.00,VWS V14.01,2013-01-26 02:44:00,
2013-01-25 18:49:00,40.6,39.5,29.88,ENE,61,0.0,0.0,96,0.00,,---,0.16,0.00,VWS V14.01,2013-01-26 02:49:00,
2013-01-25 18:54:00,40.5,39.5,29.88,ENE,61,0.0,0.0,96,0.00,,---,0.16,0.00,VWS V14.01,2013-01-26 02:54:00,
2013-01-25 18:59:00,40.5,39.5,29.88,ENE,61,0.0,0.0,96,0.00,,---,0.16,0.00,VWS V14.01,2013-01-26 02:59:00,
2013-01-25 19:04:00,40.4,39.3,29.88,ENE,61,0.0,0.0,96,0.00,,---,0.16,0.00,VWS V14.01,2013-01-26 03:04:00,
2013-01-25 19:09:00,40.4,39.3,29.88,ENE,61,0.0,0.0,96,0.00,,---,0.16,0.00,VWS V14.01,2013-01-26 03:09:00,
2013-01-25 19:14:00,40.5,39.5,29.88,ENE,61,0.0,0.0,96,0.00,,---,0.16,0.00,VWS V14.01,2013-01-26 03:14:00,
2013-01-25 19:19:00,40.5,39.7,29.88,ENE,61,0.0,0.0,97,0.00,,---,0.16,0.00,VWS V14.01,2013-01-26 03:19:00,
2013-01-25 19:24:00,40.7,39.9,29.88,ENE,61,0.0,0.0,97,0.00,,---,0.16,0.00,VWS V14.01,2013-01-26 03:24:00,
2013-01-25 19:29:00,40.7,39.9,29.89,SE,130,1.0,2.0,97,0.00,,---,0.16,0.00,VWS V14.01,2013-01-26 03:29:00,
2013-01-25 19:34:00,41.0,40.2,29.88,ENE,76,1.0,6.0,97,0.07,,---,0.23,0.00,VWS V14.01,2013-01-26 03:34:00,
2013-01-25 19:39:00,40.9,40.1,29.88,ENE,76,0.0,6.0,97,0.08,,---,0.24,0.00,VWS V14.01,2013-01-26 03:39:00,
2013-01-25 19:44:00,40.9,40.1,29.88,ENE,73,0.0,1.0,97,0.08,,---,0.24,0.00,VWS V14.01,2013-01-26 03:44:00,
2013-01-25 19:49:00,40.8,40.0,29.87,NNW,340,0.0,1.0,97,0.09,,---,0.25,0.00,VWS V14.01,2013-01-26 03:49:00,
2013-01-25 19:54:00,40.6,39.8,29.87,NNW,340,0.0,1.0,97,0.09,,---,0.25,0.00,VWS V14.01,2013-01-26 03:54:00,
2013-01-25 19:59:00,40.5,39.7,29.87,NNW,340,0.0,0.0,97,0.09,,---,0.25,0.00,VWS V14.01,2013-01-26 03:59:00,
2013-01-25 20:04:00,40.3,39.5,29.87,NNW,340,0.0,0.0,97,0.09,,---,0.25,0.00,VWS V14.01,2013-01-26 04:04:00,
2013-01-25 20:09:00,40.2,39.4,29.87,NNE,18,1.0,1.0,97,0.09,,---,0.25,0.00,VWS V14.01,2013-01-26 04:09:00,
2013-01-25 20:14:00,40.0,39.2,29.87,NNE,18,0.0,1.0,97,0.09,,---,0.25,0.00,VWS V14.01,2013-01-26 04:14:00,
2013-01-25 20:19:00,40.0,39.2,29.87,NNE,18,0.0,1.0,97,0.09,,---,0.25,0.00,VWS V14.01,2013-01-26 04:19:00,
2013-01-25 20:24:00,40.0,39.2,29.88,NNE,18,0.0,1.0,97,0.09,,---,0.25,0.00,VWS V14.01,2013-01-26 04:24:00,
2013-01-25 20:29:00,40.1,39.3,29.87,NNE,18,0.0,0.0,97,0.09,,---,0.25,0.00,VWS V14.01,2013-01-26 04:29:00,
2013-01-25 20:34:00,40.1,39.3,29.87,NNE,18,0.0,1.0,97,0.03,,---,0.25,0.00,VWS V14.01,2013-01-26 04:34:00,
2013-01-25 20:39:00,40.3,39.5,29.87,NNE,18,0.0,1.0,97,0.01,,---,0.25,0.00,VWS V14.01,2013-01-26 04:39:00,
2013-01-25 20:44:00,40.4,39.6,29.87,NNE,18,0.0,0.0,97,0.01,,---,0.25,0.00,VWS V14.01,2013-01-26 04:44:00,
2013-01-25 20:49:00,40.4,39.6,29.87,NNE,18,0.0,0.0,97,0.00,,---,0.25,0.00,VWS V14.01,2013-01-26 04:49:00,
2013-01-25 20:54:00,40.3,39.5,29.87,NNE,18,0.0,0.0,97,0.00,,---,0.25,0.00,VWS V14.01,2013-01-26 04:54:00,
2013-01-25 20:59:00,40.3,39.5,29.87,NNE,18,0.0,0.0,97,0.00,,---,0.25,0.00,VWS V14.01,2013-01-26 04:59:00,
2013-01-25 21:00:00,40.3,39.5,29.87,NNE,18,0.0,0.0,97,0.00,,---,0.25,0.00,VWS V14.01,2013-01-26 05:00:00,
2013-01-25 21:01:00,40.2,39.4,29.87,NNE,18,0.0,0.0,97,0.00,,---,0.25,0.00,VWS V14.01,2013-01-26 05:01:00,
2013-01-25 21:02:00,40.2,39.4,29.87,NNE,18,0.0,0.0,97,0.00,,---,0.25,0.00,VWS V14.01,2013-01-26 05:02:00,
2013-01-25 21:03:00,40.2,39.4,29.87,NNE,18,0.0,0.0,97,0.00,,---,0.25,0.00,VWS V14.01,2013-01-26 05:03:00,
2013-01-25 21:08:00,40.2,39.4,29.87,NNE,18,0.0,0.0,97,0.00,,---,0.25,0.00,VWS V14.01,2013-01-26 05:08:00,
2013-01-25 21:13:00,40.2,39.4,29.87,NNE,18,0.0,0.0,97,0.00,,---,0.25,0.00,VWS V14.01,2013-01-26 05:13:00,
2013-01-25 21:18:00,40.3,39.5,29.87,ESE,105,0.0,2.0,97,0.00,,---,0.25,0.00,VWS V14.01,2013-01-26 05:18:00,
2013-01-25 21:23:00,40.4,39.6,29.87,ESE,105,0.0,2.0,97,0.00,,---,0.25,0.00,VWS V14.01,2013-01-26 05:23:00,
2013-01-25 21:28:00,40.3,39.5,29.87,ESE,105,0.0,0.0,97,0.00,,---,0.25,0.00,VWS V14.01,2013-01-26 05:28:00,
2013-01-25 21:33:00,40.2,39.4,29.87,SSW,197,0.0,2.0,97,0.00,,---,0.25,0.00,VWS V14.01,2013-01-26 05:33:00,
2013-01-25 21:38:00,40.0,39.2,29.87,SSW,197,0.0,1.0,97,0.00,,---,0.25,0.00,VWS V14.01,2013-01-26 05:38:00,
2013-01-25 21:43:00,39.9,39.1,29.87,SSW,197,0.0,0.0,97,0.00,,---,0.25,0.00,VWS V14.01,2013-01-26 05:43:00,
2013-01-25 21:48:00,39.7,38.9,29.87,SSW,197,0.0,0.0,97,0.00,,---,0.25,0.00,VWS V14.01,2013-01-26 05:48:00,
2013-01-25 21:53:00,39.6,38.8,29.87,SSW,197,0.0,0.0,97,0.00,,---,0.25,0.00,VWS V14.01,2013-01-26 05:53:00,
2013-01-25 21:58:00,39.4,38.6,29.87,SSW,197,0.0,0.0,97,0.00,,---,0.25,0.00,VWS V14.01,2013-01-26 05:58:00,
2013-01-25 22:03:00,39.3,38.5,29.87,SSW,197,0.0,0.0,97,0.00,,---,0.25,0.00,VWS V14.01,2013-01-26 06:03:00,
2013-01-25 22:08:00,39.1,38.3,29.87,SSW,197,0.0,0.0,97,0.00,,---,0.25,0.00,VWS V14.01,2013-01-26 06:08:00,
2013-01-25 22:13:00,38.9,38.1,29.87,SSW,197,0.0,0.0,97,0.00,,---,0.25,0.00,VWS V14.01,2013-01-26 06:13:00,
2013-01-25 22:18:00,38.7,37.9,29.87,SSW,197,0.0,0.0,97,0.00,,---,0.25,0.00,VWS V14.01,2013-01-26 06:18:00,
2013-01-25 22:23:00,38.6,37.8,29.87,SSW,197,0.0,0.0,97,0.00,,---,0.25,0.00,VWS V14.01,2013-01-26 06:23:00,
2013-01-25 22:28:00,38.4,37.6,29.87,WNW,291,2.0,2.0,97,0.00,,---,0.25,0.00,VWS V14.01,2013-01-26 06:28:00,
2013-01-25 22:33:00,38.4,37.6,29.87,WNW,291,0.0,2.0,97,0.00,,---,0.25,0.00,VWS V14.01,2013-01-26 06:33:00,
2013-01-25 22:38:00,38.5,37.7,29.87,WNW,291,0.0,0.0,97,0.00,,---,0.25,0.00,VWS V14.01,2013-01-26 06:38:00,
2013-01-25 22:43:00,38.7,37.9,29.86,WNW,291,0.0,0.0,97,0.00,,---,0.25,0.00,VWS V14.01,2013-01-26 06:43:00,
2013-01-25 22:48:00,38.9,38.1,29.86,WNW,291,0.0,0.0,97,0.00,,---,0.25,0.00,VWS V14.01,2013-01-26 06:48:00,
2013-01-25 22:53:00,39.1,38.3,29.86,WNW,291,0.0,0.0,97,0.00,,---,0.25,0.00,VWS V14.01,2013-01-26 06:53:00,
2013-01-25 22:59:00,39.3,38.5,29.86,WNW,291,0.0,0.0,97,0.00,,---,0.25,0.00,VWS V14.01,2013-01-26 06:59:00,
2013-01-25 23:04:00,39.4,38.9,29.86,WNW,291,0.0,0.0,98,0.00,,---,0.25,0.00,VWS V14.01,2013-01-26 07:04:00,
2013-01-25 23:09:00,39.5,39.0,29.86,WNW,291,0.0,0.0,98,0.00,,---,0.25,0.00,VWS V14.01,2013-01-26 07:09:00,
2013-01-25 23:14:00,39.7,39.2,29.86,WNW,291,0.0,0.0,98,0.00,,---,0.25,0.00,VWS V14.01,2013-01-26 07:14:00,
2013-01-25 23:19:00,39.7,39.2,29.86,WNW,291,0.0,0.0,98,0.00,,---,0.25,0.00,VWS V14.01,2013-01-26 07:19:00,
2013-01-25 23:24:00,39.8,39.3,29.86,WNW,291,0.0,0.0,98,0.00,,---,0.25,0.00,VWS V14.01,2013-01-26 07:24:00,
2013-01-25 23:29:00,39.8,39.3,29.87,WNW,291,0.0,0.0,98,0.00,,---,0.25,0.00,VWS V14.01,2013-01-26 07:29:00,
2013-01-25 23:34:00,39.8,39.3,29.86,WNW,291,0.0,0.0,98,0.00,,---,0.25,0.00,VWS V14.01,2013-01-26 07:34:00,
2013-01-25 23:39:00,39.8,39.3,29.86,WNW,291,0.0,0.0,98,0.00,,---,0.25,0.00,VWS V14.01,2013-01-26 07:39:00,
2013-01-25 23:44:00,39.8,39.3,29.86,WNW,291,0.0,0.0,98,0.00,,---,0.25,0.00,VWS V14.01,2013-01-26 07:44:00,
2013-01-25 23:49:00,39.8,39.3,29.86,WNW,291,0.0,0.0,98,0.00,,---,0.25,0.00,VWS V14.01,2013-01-26 07:49:00,
2013-01-25 23:54:00,39.7,39.2,29.86,SSW,211,0.0,2.0,98,0.00,,---,0.25,0.00,VWS V14.01,2013-01-26 07:54:00,
2013-01-25 23:59:00,39.7,39.2,29.86,ESE,109,0.0,2.0,98,0.00,,---,0.25,0.00,VWS V14.01,2013-01-26 07:59:00,